GW1429 Weather Reports


time (UTC)temp
F
wind
direction
speed
knots
gust
knots
rain 1hr
in
rain 24hr
in
rain mn
in
humidity
%
barometer
mb
20240527184445 96 106 2.6 4.3 0.00 0.00 0.00 55 1047.0
20240527183944 95 129 6.1 7.0 0.00 0.00 0.00 54 1047.1
20240527183442 94 194 2.6 6.1 0.00 0.00 0.00 59 1047.1
20240527182942 93 92 6.1 9.6 0.00 0.00 0.00 61 1047.3
20240527182441 94 152 2.6 4.3 0.00 0.00 0.00 58 1047.2
20240527181940 94 121 2.6 3.5 0.00 0.00 0.00 56 1047.3
20240527181440 94 90 0.9 4.3 0.00 0.00 0.00 60 1047.1
20240527180938 94 96 6.1 9.6 0.00 0.00 0.00 59 1047.4
20240527180436 94 222 2.6 3.5 0.00 0.00 0.00 57 1047.3
20240527175935 95 117 1.7 2.6 0.00 0.00 0.00 58 1047.6
20240527175433 93 151 5.2 7.0 0.00 0.00 0.00 62 1047.7
20240527174931 92 102 1.7 7.0 0.00 0.00 0.00 60 1047.5
20240527174431 93 120 4.3 6.1 0.00 0.00 0.00 58 1047.4
20240527173929 92 142 5.2 6.1 0.00 0.00 0.00 62 1047.8
20240527173427 92 115 2.6 5.2 0.00 0.00 0.00 63 1047.6
20240527172925 93 120 0.0 6.1 0.00 0.00 0.00 64 1047.6
20240527172423 92 133 2.6 3.5 0.00 0.00 0.00 64 1047.6
20240527171922 90 135 2.6 7.0 0.00 0.00 0.00 66 1047.6
20240527171420 91 270 0.0 4.3 0.00 0.00 0.00 64 1047.9
20240527170920 91 111 5.2 6.1 0.00 0.00 0.00 64 1048.0
20240527170418 92 159 4.3 4.3 0.00 0.00 0.00 64 1047.8
20240527165916 90 180 0.9 4.3 0.00 0.00 0.00 67 1047.9
20240527165414 91 149 4.3 8.7 0.00 0.00 0.00 67 1048.2
20240527164913 90 134 4.3 5.2 0.00 0.00 0.00 67 1048.0
20240527164412 91 73 1.7 6.1 0.00 0.00 0.00 66 1048.2
20240527163912 91 180 1.7 5.2 0.00 0.00 0.00 65 1048.0
20240527163411 91 285 2.6 4.3 0.00 0.00 0.00 65 1048.1
20240527162909 91 31 2.6 8.7 0.00 0.00 0.00 66 1048.2
20240527162407 91 270 0.0 5.2 0.00 0.00 0.00 66 1048.0
20240527161906 92 190 0.0 2.6 0.00 0.00 0.00 64 1048.2
20240527161404 90 315 1.7 2.6 0.00 0.00 0.00 67 1048.0
20240527160903 90 119 1.7 3.5 0.00 0.00 0.00 68 1048.1
20240527160401 90 109 2.6 3.5 0.00 0.00 0.00 68 1048.2
20240527155859 88 6 2.6 5.2 0.00 0.00 0.00 70 1048.0
20240527155359 89 180 0.0 3.5 0.00 0.00 0.00 68 1047.9
20240527154858 90 96 2.6 5.2 0.00 0.00 0.00 67 1047.9
20240527154358 89 154 0.0 1.7 0.00 0.00 0.00 70 1047.9
20240527153857 87 135 1.7 6.1 0.00 0.00 0.00 73 1047.9
20240527153356 88 49 1.7 2.6 0.00 0.00 0.00 71 1047.9
20240527152855 87 141 2.6 5.2 0.00 0.00 0.00 72 1047.6
20240527152353 87 135 1.7 3.5 0.00 0.00 0.00 74 1047.6
20240527151852 88 121 1.7 4.3 0.00 0.00 0.00 71 1047.7
20240527151352 88 185 0.0 3.5 0.00 0.00 0.00 71 1047.5
20240527150850 89 239 1.7 1.7 0.00 0.00 0.00 70 1047.6
20240527150349 88 261 0.9 1.7 0.00 0.00 0.00 71 1047.6
20240527145848 89 108 0.0 3.5 0.00 0.00 0.00 71 1047.6
20240527145346 87 151 0.0 1.7 0.00 0.00 0.00 72 1047.6
20240527144845 87 195 0.9 2.6 0.00 0.00 0.00 74 1047.5
20240527144344 87 90 0.9 1.7 0.00 0.00 0.00 73 1047.5
20240527143844 85 126 0.0 0.9 0.00 0.00 0.00 77 1047.5
20240527143343 84 205 2.6 3.5 0.00 0.00 0.00 80 1047.6
20240527142842 83 261 0.0 1.7 0.00 0.00 0.00 80 1047.3
20240527142340 84 180 2.6 3.5 0.00 0.00 0.00 80 1047.4
20240527141839 83 140 0.0 1.7 0.00 0.00 0.00 82 1047.5
20240527141337 83 273 3.5 3.5 0.00 0.00 0.00 82 1047.2
20240527140836 82 319 0.0 1.7 0.00 0.00 0.00 83 1047.3
20240527140335 81 278 1.7 2.6 0.00 0.00 0.00 85 1047.2
20240527135833 81 279 2.6 3.5 0.00 0.00 0.00 85 1047.4
20240527135332 82 252 1.7 2.6 0.00 0.00 0.00 84 1047.2
20240527134830 81 229 1.7 3.5 0.00 0.00 0.00 85 1047.3
20240527134329 81 220 1.7 3.5 0.00 0.00 0.00 86 1046.9
20240527133828 81 297 0.0 2.6 0.00 0.00 0.00 87 1046.9
20240527133325 81 217 0.0 1.7 0.00 0.00 0.00 86 1046.7
20240527132824 81 295 1.7 1.7 0.00 0.00 0.00 87 1046.7
20240527132322 80 172 0.0 0.9 0.00 0.00 0.00 88 1046.7
20240527131821 80 180 0.0 0.0 0.00 0.00 0.00 89 1046.9
20240527131319 79 166 0.9 1.7 0.00 0.00 0.00 90 1046.8
20240527130819 79 266 2.6 4.3 0.00 0.00 0.00 90 1046.8
20240527130317 79 157 0.0 2.6 0.00 0.00 0.00 90 1046.6
20240527125816 79 84 1.7 2.6 0.00 0.00 0.00 91 1046.4
20240527125313 79 205 2.6 2.6 0.00 0.00 0.00 91 1046.3
20240527124812 79 135 1.7 2.6 0.00 0.00 0.00 91 1046.5
20240527124304 79 152 1.7 3.5 0.00 0.00 0.00 91 1046.3
20240527123803 79 99 1.7 1.7 0.00 0.00 0.00 91 1046.0
20240527123302 78 172 0.0 3.5 0.00 0.00 0.00 92 1045.8
20240527122802 78 225 2.6 4.3 0.00 0.00 0.00 92 1045.7
20240527122301 78 220 2.6 4.3 0.00 0.00 0.00 92 1045.6
20240527121800 78 230 4.3 5.2 0.00 0.00 0.00 92 1045.7
20240527121258 78 206 2.6 4.3 0.00 0.00 0.00 92 1045.4
20240527120757 78 285 2.6 4.3 0.00 0.00 0.00 93 1045.5
20240527120257 78 212 2.6 3.5 0.00 0.00 0.00 93 1045.2
20240527115756 78 222 2.6 4.3 0.00 0.00 0.00 93 1045.2
20240527115255 78 201 2.6 7.8 0.00 0.00 0.00 93 1045.2
20240527114754 78 191 4.3 7.0 0.00 0.00 0.00 93 1045.3
20240527114253 78 188 3.5 6.1 0.00 0.00 0.00 93 1045.2
20240527113751 78 228 3.5 5.2 0.00 0.00 0.00 93 1044.9
20240527113250 78 191 2.6 6.1 0.00 0.00 0.00 94 1044.9
20240527112748 78 240 4.3 6.1 0.00 0.00 0.00 94 1045.1
20240527112248 78 201 1.7 4.3 0.00 0.00 0.00 94 1044.8
20240527111747 78 210 1.7 5.2 0.00 0.00 0.00 94 1044.8
20240527111247 78 215 2.6 4.3 0.00 0.00 0.00 94 1044.6
20240527110745 78 229 2.6 6.1 0.00 0.00 0.00 95 1044.6
20240527110244 78 226 4.3 5.2 0.00 0.00 0.00 95 1044.6
20240527105742 78 162 2.6 3.5 0.00 0.00 0.00 95 1044.4
20240527105239 78 202 3.5 5.2 0.00 0.00 0.00 95 1044.3
20240527104738 78 169 3.5 4.3 0.00 0.00 0.00 95 1044.1
20240527104237 78 236 2.6 4.3 0.00 0.00 0.00 95 1044.3
20240527103736 78 227 2.6 3.5 0.00 0.00 0.00 95 1044.0
20240527103234 78 206 0.9 2.6 0.00 0.00 0.00 95 1044.1
20240527102734 78 216 2.6 6.1 0.00 0.00 0.00 95 1044.0
20240527102232 78 214 1.7 5.2 0.00 0.00 0.00 95 1044.1
20240527101731 78 209 4.3 7.8 0.00 0.00 0.00 95 1044.0
20240527101230 78 200 2.6 7.0 0.00 0.00 0.00 95 1044.2
20240527100729 78 200 2.6 7.0 0.00 0.00 0.00 95 1044.1
20240527100229 78 254 5.2 7.0 0.00 0.00 0.00 96 1044.0
20240527095728 78 218 4.3 5.2 0.00 0.00 0.00 96 1044.1
20240527095225 78 246 2.6 5.2 0.00 0.00 0.00 96 1043.9
20240527094724 78 200 4.3 8.7 0.00 0.00 0.00 96 1043.6
20240527094222 78 220 2.6 10.4 0.00 0.00 0.00 96 1043.7
20240527093721 77 223 5.2 8.7 0.00 0.00 0.00 96 1043.8
20240527093221 78 211 4.3 8.7 0.00 0.00 0.00 95 1043.7
20240527092720 78 208 5.2 7.8 0.00 0.00 0.00 95 1043.6
20240527092220 77 206 2.6 5.2 0.00 0.00 0.00 95 1043.7
20240527091719 77 237 2.6 8.7 0.00 0.00 0.00 95 1043.7
20240527091219 78 202 2.6 6.1 0.00 0.00 0.00 95 1043.5
20240527090717 78 198 0.9 7.0 0.00 0.00 0.00 95 1043.5
20240527090215 78 194 3.5 3.5 0.00 0.00 0.00 95 1043.5
20240527085713 78 226 4.3 4.3 0.00 0.00 0.00 95 1043.5
20240527085212 78 244 2.6 9.6 0.00 0.00 0.00 95 1043.5
20240527084710 78 166 4.3 7.8 0.00 0.00 0.00 95 1043.4
20240527084210 78 223 3.5 9.6 0.00 0.00 0.00 95 1043.2
20240527083708 78 207 2.6 5.2 0.00 0.00 0.00 95 1043.3
20240527083207 78 190 1.7 5.2 0.00 0.00 0.00 95 1043.3
20240527082706 78 223 4.3 7.0 0.00 0.00 0.00 95 1043.2
20240527082205 78 202 4.3 5.2 0.00 0.00 0.00 94 1043.1
20240527081704 78 175 7.0 7.0 0.00 0.00 0.00 94 1043.3
20240527081203 78 223 4.3 4.3 0.00 0.00 0.00 94 1043.2
20240527080702 78 188 1.7 4.3 0.00 0.00 0.00 94 1043.2
20240527080201 78 227 2.6 4.3 0.00 0.00 0.00 94 1043.3
20240527075659 78 195 2.6 2.6 0.00 0.00 0.00 94 1043.3
20240527075159 78 198 0.0 2.6 0.00 0.00 0.00 93 1043.5
20240527074657 78 248 1.7 5.2 0.00 0.00 0.00 93 1043.4
20240527074157 79 164 2.6 4.3 0.00 0.00 0.00 93 1043.1
20240527073656 79 172 3.5 3.5 0.00 0.00 0.00 93 1043.1
20240527073155 79 206 2.6 5.2 0.00 0.00 0.00 92 1043.3
20240527072654 79 200 5.2 6.1 0.00 0.00 0.00 92 1043.1
20240527072153 79 229 1.7 6.1 0.00 0.00 0.00 92 1043.2
20240527071652 79 209 2.6 4.3 0.00 0.00 0.00 92 1043.4
20240527071151 79 221 1.7 4.3 0.00 0.00 0.00 91 1043.4
20240527070649 79 198 4.3 7.0 0.00 0.00 0.00 91 1043.4
20240527070149 80 212 1.7 7.0 0.00 0.00 0.00 91 1043.2
20240527065648 80 206 5.2 7.0 0.00 0.00 0.00 91 1043.4
20240527065147 80 228 1.7 7.0 0.00 0.00 0.00 90 1043.3
20240527064648 80 208 3.5 6.1 0.00 0.00 0.00 90 1043.3
20240527064146 80 164 2.6 7.0 0.00 0.00 0.00 90 1043.2
20240527063645 80 193 4.3 8.7 0.00 0.00 0.00 89 1043.1
20240527063144 80 199 3.5 6.1 0.00 0.00 0.00 89 1042.9
20240527062643 80 202 0.0 5.2 0.00 0.00 0.00 89 1043.1
20240527062142 81 161 4.3 7.8 0.00 0.00 0.00 88 1043.2
20240527061639 81 196 0.0 7.0 0.00 0.00 0.00 88 1043.3
20240527061139 81 166 2.6 6.1 0.00 0.00 0.00 88 1043.0
20240527060638 81 221 0.0 9.6 0.00 0.00 0.00 87 1043.0
20240527060136 81 166 5.2 7.8 0.00 0.00 0.00 87 1043.1
20240527055635 81 180 1.7 7.0 0.00 0.00 0.00 87 1043.2
20240527055135 82 217 5.2 8.7 0.00 0.00 0.00 86 1043.2
20240527054633 82 207 3.5 5.2 0.00 0.00 0.00 86 1043.3
20240527054133 82 170 2.6 6.1 0.00 0.00 0.00 85 1043.2
20240527053631 82 237 3.5 7.0 0.00 0.00 0.00 85 1043.3
20240527053131 82 201 2.6 7.0 0.00 0.00 0.00 85 1043.2
20240527052631 82 202 6.1 6.1 0.00 0.00 0.00 84 1043.0
20240527052130 83 202 2.6 9.6 0.00 0.00 0.00 84 1043.1
20240527051628 83 166 5.2 11.3 0.00 0.00 0.00 84 1043.2
20240527051128 83 210 5.2 9.6 0.00 0.00 0.00 83 1043.3
20240527050627 83 140 4.3 8.7 0.00 0.00 0.00 83 1043.2
20240527050126 83 220 4.3 9.6 0.00 0.00 0.00 83 1043.3
20240527045625 83 221 5.2 9.6 0.00 0.00 0.00 82 1043.3
20240527045123 84 142 4.3 13.0 0.00 0.00 0.00 82 1043.1
20240527044621 84 202 3.5 6.1 0.00 0.00 0.00 82 1043.2
20240527044119 84 192 4.3 10.4 0.00 0.00 0.00 82 1043.1
20240527043617 84 205 5.2 7.8 0.00 0.00 0.00 81 1043.3
20240527043117 84 165 2.6 10.4 0.00 0.00 0.00 81 1043.1
20240527042615 84 178 6.1 9.6 0.00 0.00 0.00 80 1043.2
20240527042115 84 220 4.3 11.3 0.00 0.00 0.00 80 1043.3
20240527041614 85 217 5.2 11.3 0.00 0.00 0.00 79 1043.1
20240527041112 85 164 7.0 10.4 0.00 0.00 0.00 79 1043.2
20240527040610 85 189 4.3 8.7 0.00 0.00 0.00 78 1043.2
20240527040110 85 208 6.1 7.8 0.00 0.00 0.00 77 1042.9
20240527035609 85 187 5.2 7.0 0.00 0.00 0.00 77 1043.0
20240527035108 85 187 5.2 7.8 0.00 0.00 0.00 77 1043.0
20240527034605 85 202 2.6 6.1 0.00 0.00 0.00 77 1043.1
20240527034105 85 180 2.6 4.3 0.00 0.00 0.00 76 1042.9
20240527033603 85 167 2.6 3.5 0.00 0.00 0.00 75 1042.7
20240527033102 85 206 2.6 3.5 0.00 0.00 0.00 75 1042.7
20240527032600 85 204 1.7 3.5 0.00 0.00 0.00 75 1042.7
20240527032100 85 159 1.7 4.3 0.00 0.00 0.00 75 1042.5
20240527031559 85 172 1.7 5.2 0.00 0.00 0.00 74 1042.6
20240527031058 85 180 0.0 0.9 0.00 0.00 0.00 74 1042.5
20240527030557 85 192 0.9 1.7 0.00 0.00 0.00 74 1042.2
20240527030055 85 212 0.0 2.6 0.00 0.00 0.00 75 1042.3
20240527025552 84 180 2.6 3.5 0.00 0.00 0.00 76 1042.1
20240527025050 84 135 1.7 2.6 0.00 0.00 0.00 76 1042.2
20240527024550 84 128 3.5 3.5 0.00 0.00 0.00 77 1042.2
20240527024049 85 192 0.0 1.7 0.00 0.00 0.00 73 1042.2
20240527023548 86 174 0.9 1.7 0.00 0.00 0.00 71 1042.1
20240527023047 86 203 0.9 1.7 0.00 0.00 0.00 71 1042.1
20240527022546 86 172 0.9 2.6 0.00 0.00 0.00 72 1041.9
20240527022047 85 180 0.0 1.7 0.00 0.00 0.00 73 1041.8
20240527021546 86 180 0.0 0.9 0.00 0.00 0.00 71 1041.8
20240527021046 87 168 0.0 1.7 0.00 0.00 0.00 69 1041.6
20240527020544 87 172 0.0 0.9 0.00 0.00 0.00 68 1041.4
20240527020043 87 172 0.0 0.9 0.00 0.00 0.00 68 1041.7
20240527015543 88 165 0.0 0.9 0.00 0.00 0.00 67 1041.7
20240527015041 88 151 1.7 1.7 0.00 0.00 0.00 67 1041.5
20240527014541 88 114 0.9 1.7 0.00 0.00 0.00 66 1041.3
20240527014040 88 160 0.9 1.7 0.00 0.00 0.00 66 1041.3
20240527013540 89 172 0.0 1.7 0.00 0.00 0.00 65 1041.2
20240527013040 89 225 2.6 3.5 0.00 0.00 0.00 65 1041.2
20240527012539 89 135 2.6 4.3 0.00 0.00 0.00 64 1041.1
20240527012038 89 150 4.3 4.3 0.00 0.00 0.00 64 1041.0
20240527011536 90 138 2.6 3.5 0.00 0.00 0.00 63 1040.9
20240527011035 90 180 2.6 4.3 0.00 0.00 0.00 63 1040.8
20240527010534 90 151 1.7 4.3 0.00 0.00 0.00 62 1040.6
20240527010033 91 202 2.6 4.3 0.00 0.00 0.00 62 1040.5
20240527005533 91 245 0.0 2.6 0.00 0.00 0.00 61 1040.6
20240527005032 91 193 2.6 7.0 0.00 0.00 0.00 61 1040.8
20240527004531 91 195 0.9 4.3 0.00 0.00 0.00 61 1040.4
20240527004030 92 180 4.3 4.3 0.00 0.00 0.00 60 1040.4
20240527003530 92 175 2.6 4.3 0.00 0.00 0.00 59 1040.4
20240527003030 92 184 1.7 7.0 0.00 0.00 0.00 59 1040.2
20240527002530 93 233 0.0 5.2 0.00 0.00 0.00 59 1040.2
20240527002028 93 198 3.5 7.0 0.00 0.00 0.00 58 1040.2
20240527001528 93 174 0.9 4.3 0.00 0.00 0.00 57 1040.1
20240527001029 94 174 0.9 4.3 0.00 0.00 0.00 56 1040.4
20240527000528 93 166 0.9 9.6 0.00 0.00 0.00 57 1040.1
20240527000027 94 192 0.9 4.3 0.00 0.00 0.00 57 1040.0
20240526235527 94 197 1.7 3.5 0.00 0.00 0.00 56 1040.2
20240526235026 95 197 2.6 2.6 0.00 0.00 0.00 54 1040.3
20240526234525 95 180 2.6 3.5 0.00 0.00 0.00 54 1040.2
20240526234025 95 134 3.5 3.5 0.00 0.00 0.00 54 1040.3
20240526233524 95 138 2.6 3.5 0.00 0.00 0.00 52 1039.9
20240526233024 96 182 3.5 3.5 0.00 0.00 0.00 48 1040.1
20240526232523 95 225 1.7 3.5 0.00 0.00 0.00 49 1040.3
20240526232022 95 225 2.6 4.3 0.00 0.00 0.00 49 1040.4
20240526231521 96 226 3.5 4.3 0.00 0.00 0.00 47 1040.3
20240526231020 95 220 2.6 3.5 0.00 0.00 0.00 48 1040.8
20240526230518 96 240 2.6 4.3 0.00 0.00 0.00 48 1040.6
20240526230018 96 202 1.7 3.5 0.00 0.00 0.00 49 1040.4
20240526225518 95 219 2.6 5.2 0.00 0.00 0.00 49 1040.6
20240526225017 95 180 0.0 4.3 0.00 0.00 0.00 49 1040.3
20240526224516 96 244 5.2 5.2 0.00 0.00 0.00 50 1040.4
20240526224016 95 162 2.6 5.2 0.00 0.00 0.00 52 1040.4
20240526223516 95 225 3.5 4.3 0.00 0.00 0.00 51 1040.4
20240526223015 97 221 1.7 3.5 0.00 0.00 0.00 50 1040.3
20240526222513 94 199 1.7 4.3 0.00 0.00 0.00 53 1040.3
20240526222011 94 223 4.3 7.8 0.00 0.00 0.00 53 1040.5
20240526221510 94 146 2.6 6.1 0.00 0.00 0.00 53 1040.3
20240526221009 96 165 2.6 3.5 0.00 0.00 0.00 54 1040.4
20240526220508 95 145 3.5 6.1 0.00 0.00 0.00 56 1040.2
20240526220008 95 221 3.5 7.0 0.00 0.00 0.00 56 1040.6
20240526215507 95 146 7.0 7.0 0.00 0.00 0.00 56 1040.4
20240526215005 94 220 2.6 6.1 0.00 0.00 0.00 58 1040.5
20240526214505 94 250 2.6 7.0 0.00 0.00 0.00 58 1040.5
20240526214004 94 216 2.6 9.6 0.00 0.00 0.00 58 1040.5
20240526213503 94 246 5.2 6.1 0.00 0.00 0.00 57 1040.5
20240526213001 94 194 3.5 6.1 0.00 0.00 0.00 58 1040.5
20240526212501 93 212 2.6 6.1 0.00 0.00 0.00 61 1040.9
20240526212000 94 115 1.7 7.8 0.00 0.00 0.00 59 1040.4
20240526211459 94 222 2.6 7.0 0.00 0.00 0.00 59 1040.9
20240526210933 94 238 3.5 5.2 0.00 0.00 0.00 59 1040.8
20240526210431 94 199 2.6 3.5 0.00 0.00 0.00 58 1041.1
20240526205930 95 264 2.6 6.1 0.00 0.00 0.00 56 1041.0
20240526205430 94 241 6.1 7.8 0.00 0.00 0.00 56 1041.1
20240526204928 93 167 4.3 7.0 0.00 0.00 0.00 62 1041.0
20240526204428 92 234 3.5 7.0 0.00 0.00 0.00 63 1041.2
20240526203928 92 204 4.3 9.6 0.00 0.00 0.00 64 1041.1
20240526203427 92 210 6.1 6.1 0.00 0.00 0.00 63 1041.4
20240526202926 91 235 7.0 7.8 0.00 0.00 0.00 66 1041.3
20240526202425 91 198 1.7 6.1 0.00 0.00 0.00 65 1041.4
20240526201923 90 196 2.6 7.8 0.00 0.00 0.00 68 1041.3
20240526201422 91 185 5.2 7.8 0.00 0.00 0.00 65 1041.2
20240526200921 91 157 4.3 5.2 0.00 0.00 0.00 68 1041.5
20240526200420 90 225 0.0 7.8 0.00 0.00 0.00 68 1041.4
20240526195919 90 196 4.3 6.1 0.00 0.00 0.00 67 1041.4
20240526195418 90 205 4.3 9.6 0.00 0.00 0.00 68 1041.6
20240526194916 89 225 7.8 7.8 0.00 0.00 0.00 70 1041.7
20240526194416 89 241 6.1 11.3 0.00 0.00 0.00 70 1041.9
20240526193915 90 329 9.6 9.6 0.00 0.00 0.00 68 1041.9
20240526193415 90 226 6.1 9.6 0.00 0.00 0.00 69 1042.0
20240526192913 89 253 3.5 8.7 0.00 0.00 0.00 71 1041.9
20240526192412 89 223 3.5 6.1 0.00 0.00 0.00 72 1041.8
20240526191911 88 228 6.1 11.3 0.00 0.00 0.00 73 1042.1
20240526191411 88 230 7.8 8.7 0.00 0.00 0.00 73 1042.0
20240526190910 89 202 3.5 7.8 0.00 0.00 0.00 71 1042.1
20240526190411 88 223 6.1 11.3 0.00 0.00 0.00 74 1042.1
20240526185910 88 223 6.1 7.8 0.00 0.00 0.00 74 1042.1
20240526185408 87 180 1.7 10.4 0.00 0.00 0.00 75 1042.2
20240526184907 87 301 2.6 12.2 0.00 0.00 0.00 75 1042.3